Regional Weather Roundup
Issued by NWS

Home | Current Version | Previous Version | Text Only | Print | Product List | Glossary On
Versions: 1 2 3 4 5 6 7 8 9 10 11 12 13 14 15 16 17 18 19 20 21 22 23 24 25 26 27 28 29 30 31 32 33 34 35 36 37 38 39 40 41 42 43 44 45 46 47 48 49 50
000
ASUS42 KTBW 271310
RWRFL
FLORIDA REGIONAL WEATHER ROUNDUP
NATIONAL WEATHER SERVICE TAMPA BAY RUSKIN FL
800 AM EST THU NOV 27 2014

NOTE: "FAIR" INDICATES FEW OR NO CLOUDS BELOW 12,000 FEET WITH NO
SIGNIFICANT WEATHER AND/OR OBSTRUCTIONS TO VISIBILITY.


FLZ001>010-012>015-112-114-115-271400-
PANHANDLE FLORIDA

CITY           SKY/WX    TMP DP  RH WIND       PRES   REMARKS
PENSACOLA      CLEAR     44  39  82 NW5       30.33R WCI  42
PENSACOLA NAS  CLEAR     48  41  76 NW5       30.33R
MILTON NAS     CLEAR     42  38  85 NW5       30.33R WCI  39
CRESTVIEW      CLEAR     35  34  96 CALM      30.34R
DUKE FIELD     FAIR      40  38  92 NW2       30.33R
VALPARAISO     CLEAR     44  39  83 NW6       30.33R WCI  40
MARY ESTHER    CLEAR     47  37  68 NW8       30.32R WCI  43
TRI COUNTY     FAIR      43  41  93 CALM      30.33R
PANAMA CITY    FAIR      45  40  82 CALM      30.31R
TYNDALL AFB    CLEAR     50  43  76 NW6       30.32R
APALACHICOLA   CLEAR     53  44  71 N6        30.30R

STATION/POSITION SKY/WX   TEMP    WIND        PRES    WAVE   SWELL
                          AIR SEA DIR/SP/G            HT/PER HT/PER
                          (F)     (DEG/KT/KT) (MB)    (FT/S) (FT/S)
30.1N   87.6W              56 64  330/ 16/ 19 1026.6R   3/ 6
29.2N   88.2W              61 70  350/ 17/ 21 1028.6R   5/ 5
28.7N   86.0W              67 76  330/ 21/ 27 1026.0R   9/ 8
PANAMA CITY BEAC           51 62  320/  7/  9 1026.2R
CAPE SAN BLAS    NOT AVBL
TOWER C                    58     340/ 19/ 20 1025.7R
28.5N   84.5W              69 70  310/ 19/ 23 1024.7R   6/ 6

$$
FLZ011-016>038-118-127-128-134-139-239-271400-
NORTH FLORIDA

CITY           SKY/WX    TMP DP  RH WIND       PRES   REMARKS
MARIANNA       CLEAR     46  42  86 NW5       30.30R WCI  44
TALLAHASSEE    CLEAR     41  36  82 CALM      30.30R
PERRY          CLEAR     47  45  90 NW5       30.29R
CROSS CITY       N/A     51  47  86 NW6       30.28R
LAKE CITY      FAIR      43  43 100 W3        30.27R
GAINESVILLE    SUNNY     47  43  86 W5        30.27R WCI  45
MAYPORT NAS    SUNNY     50  41  71 W7        30.25R
JACKSONVILLE   SUNNY     45  41  86 W8        30.25R WCI  41
JAX NAS        SUNNY     48  38  68 W8        30.26R WCI  44
JAX CRAIG      SUNNY     47  42  83 SW3       30.25R
JAX CECIL      SUNNY     39  37  93 CALM      30.26R
FERNANDINA BEA FAIR      54  43  66 W9        30.23R
ST AUGUSTINE   SUNNY     49  41  74 W6        30.25R

STATION/POSITION SKY/WX   TEMP    WIND        PRES    WAVE   SWELL
                          AIR SEA DIR/SP/G            HT/PER HT/PER
                          (F)     (DEG/KT/KT) (MB)    (FT/S) (FT/S)
SHELL POINT                51     330/ 10/ 14   N/A
KEATON BEACH               53     320/  7/ 11 1025.7R
CEDAR KEY                  60     260/  3/  4 1024.7R
FERNANDINA                 48 60  270/ 10/ 12 1023.5R
30.7N   81.3W                 61                N/A     2/ 3
MAYPORT                    51 62  270/  9/ 10   N/A
31.4N   80.9W              54 64  290/ 21/ 27 1022.4R   4/ 5   2/ 9
ST AUGUSTINE               49     250/  6/  8 1024.5R

$$
FLZ040-043>046-052-053-057-058-063-144-271400-
INTERIOR CENTRAL FLORIDA

CITY           SKY/WX    TMP DP  RH WIND       PRES   REMARKS
OCALA          SUNNY     41  37  87 CALM      30.25S
THE VILLAGES     N/A     46  46 100 CALM      30.17S
LEESBURG       SUNNY     51  45  79 CALM      30.28R
SANFORD        SUNNY     51  42  71 W6        30.27R
ORLANDO EXEC   SUNNY     50  46  86 CALM      30.27S
ORLANDO INTL   MOSUNNY   50  47  89 CALM      30.28S
KISSIMMEE      SUNNY     46  46 100 CALM      30.29
WINTER HAVEN   SUNNY    N/A N/A N/A CALM      30.30R
LAKELAND       SUNNY     46  45  93 CALM      30.29S
OKEECHOBEE     SUNNY     46  45  93 N6        30.29R WCI  43

$$
FLZ041-047-054-059-064-141-147-271400-
EAST CENTRAL FLORIDA

CITY           SKY/WX    TMP DP  RH WIND       PRES   REMARKS
ORMOND BEACH   SUNNY     43  41  93 SW6       30.26R WCI  39
DAYTONA BEACH  SUNNY     48  43  82 VRB5      30.27R
DELAND         SUNNY    N/A N/A N/A SW5       30.27S
NEW SMYRNA BEA SUNNY     48  41  76 W7        30.27S
JFK SPACE CTR  SUNNY     52  46  80 W3        30.27R
TITUSVILLE     SUNNY     48  45  87 W6        30.28R
CAPE CANAVERAL SUNNY     54  44  68 NW8       30.27R
PATRICK AFB    SUNNY     55  42  61 NW10      30.28R
MELBOURNE      SUNNY     51  46  83 NW6       30.27R
VERO BEACH     SUNNY     49  43  80 NW9       30.28R WCI  45
FT PIERCE      SUNNY     52  43  71 NW5       30.27R
STUART         SUNNY     50  41  71 NW9       30.28R

STATION/POSITION SKY/WX   TEMP    WIND        PRES    WAVE   SWELL
                          AIR SEA DIR/SP/G            HT/PER HT/PER
                          (F)     (DEG/KT/KT) (MB)    (FT/S) (FT/S)
28.5N   80.2W              63 76  310/ 17/ 19 1024.2R
28.9N   78.5W              68 78  310/ 17/ 21 1022.9R   6/ 7   3/ 9
TRIDENT PIER               55 69  270/  4/  7 1024.6R
28.4N   80.5W                 69                N/A     2/ 8
27.6N   80.2W                 76                N/A     5/ 5

$$
FLZ050-056-061-142-242-148-248-149-249-151-251-155-255-
160-260-271400-
WEST CENTRAL FLORIDA

CITY           SKY/WX    TMP DP  RH WIND       PRES   REMARKS
CRYSTAL RIVER  FAIR      43  43 100 CALM      30.27R
INVERNESS      FAIR      43  43 100 CALM      30.28R
BROOKSVILLE    SUNNY     45  45 100 MISG      30.29R
ZEPHYRHILLS    FAIR      43  43 100 CALM      30.30R
CLEARWATER     SUNNY     52  49  89 S3        30.29R
TAMPA INTL     SUNNY     55  46  71 SE3       30.29S
TAMPA EXEC     SUNNY     50  46  87 CALM      30.30R
PLANT CITY     SUNNY     50 N/A N/A CALM      30.31R
MACDILL AFB    SUNNY     50  48  94 SE2       30.29R
PETER O KNIGHT SUNNY     55  52  88 CALM      30.30R
ST PETERSBURG  SUNNY     55  48  77 CALM      30.28R
SARASOTA       SUNNY     50  48  93 CALM      30.29R
VENICE         FAIR      54  48  82 NE5       30.31R

STATION/POSITION SKY/WX   TEMP    WIND        PRES    WAVE   SWELL
                          AIR SEA DIR/SP/G            HT/PER HT/PER
                          (F)     (DEG/KT/KT) (MB)    (FT/S) (FT/S)
CEDAR KEY                  60     260/  3/  4 1024.7R
28.5N   84.5W              69 70  310/ 19/ 23 1024.7R   6/ 6
27.3N   84.3W                 78                N/A     4/ 6
CLEARWATER BEACH           58 63  120/  5/  6 1025.1R
MIDDLE TAMPA BAY           60     150/  4/  5 1025.9S
VENICE                     56 67   30/  7/  9 1026.0R

$$
FLZ066-069-070-075>078-162-262-165-265-271400-
SOUTHWEST FLORIDA AND KEYS

CITY           SKY/WX    TMP DP  RH WIND       PRES   REMARKS
PUNTA GORDA    SUNNY     54  46  74 N7        30.32R
FT MYERS       SUNNY     55  44  66 N9        30.28R
SOUTHWEST INTL SUNNY     53  44  71 N7        30.28R
NAPLES         SUNNY     51  47  86 CALM      30.29R
MARCO ISLAND   SUNNY     52  46  82 N7        30.28R
MARATHON       SUNNY     61  55  81 N17G25    30.25R
KEY WEST NAS   SUNNY     63  32  31 N16G26    30.25R
KEY WEST INTL  SUNNY     64  50  60 N17G25    30.26R

STATION/POSITION SKY/WX   TEMP    WIND        PRES    WAVE   SWELL
                          AIR SEA DIR/SP/G            HT/PER HT/PER
                          (F)     (DEG/KT/KT) (MB)    (FT/S) (FT/S)
VENICE                     56 67   30/  7/  9 1026.0R
NAPLES                     53 72   20/  4/  5 1026.0R
26.0N   85.6W              70 80  360/ 17/ 23 1025.7R   4/ 6   2/14
DRY TORTUGAS               68      20/ 19/ 22 1024.0R
NW FL BAY                  57      20/ 15/ 17 1023.8R
SAND KEY                   65      20/ 23/ 27 1024.2R
SOMBRERO KEY               61     360/ 24/ 27 1024.5R
LONG KEY                   60 72  360/ 24/ 26 1024.1R
MOLASSES REEF              60 77  350/ 21/ 23 1022.5R

$$
FLZ067-068-071>074-168-172>174-271400-
SOUTHEAST FLORIDA

CITY           SKY/WX    TMP DP  RH WIND       PRES   REMARKS
W PALM BEACH   MOSUNNY   55  44  66 NW10      30.26R
FT LAUDER-EXEC SUNNY     57  40  52 N10G18    30.26R
FT LAUDERDALE  MOSUNNY   57  42  57 N15G21    30.25R
POMPANO BEACH  SUNNY     57  39  51 N16       30.26R
PEMBROKE PINES SUNNY     57  44  62 N10       30.27R
OPA LOCKA        N/A    N/A N/A N/A MISG      30.26R
MIAMI          MOSUNNY   58  46  64 VRB7      30.26R
WEST KENDALL   SUNNY     57  51  80 N10       30.27R
HOMESTEAD      SUNNY     57  50  77 NW15      30.25R

STATION/POSITION SKY/WX   TEMP    WIND        PRES    WAVE   SWELL
                          AIR SEA DIR/SP/G            HT/PER HT/PER
                          (F)     (DEG/KT/KT) (MB)    (FT/S) (FT/S)
PORT EVERGLADES            58     320/ 13/ 20 1024.0
VIRGINIA KEY               59 74  340/  8/ 14 1024.6S
LAKE WORTH                 56 75  310/ 10/ 13 1024.1S
SETTLEMENT POINT           71     360/ 19/ 21 1023.7R

$$




USA.gov is the U.S. government's official web portal to all federal, state and local government web resources and services.